Location: Newark
(50.9000°N, 14.8333°E)
Time: 11:08:32
(UTC+00:00)

N. Korean satellite - Pass Details

Date: 28 October 2020
Orbit: 453 x 503 km, 97.2° (Epoch: 03 December)

Event Time Altitude Azimuth Distance (km) Brightness Sun altitude
Rises 03:22:36 0° 33° (NNE) 2,484 10.7 -23.1°
Reaches altitude 10° 03:26:12 10° 73° (ENE) 1,598 10.3 -22.5°
Maximum altitude 03:27:02 11° 88° (E) 1,553 10.2 -22.4°
Drops below altitude 10° 03:27:52 10° 102° (ESE) 1,593 10.2 -22.3°
Sets 03:31:26 0° 142° (SE) 2,459 10.6 -21.7°
